Kamloops,

9:16 PM PDT on May 25, 2017 (GMT -0700)
Kamloops

Weather History for CYKA - October, 2012

Change the Weather History Date:

Friday, October 26, 2012

  Actual Average Record
Temperature  
Mean Temperature 39 °F -  
Max Temperature 46 °F 44 °F 62 °F (2001)
Min Temperature 32 °F 29 °F 23 °F (2008)
Degree Days  
Heating Degree Days 26    
Moisture  
Dew Point 32 °F    
Average Humidity 74    
Maximum Humidity 87    
Minimum Humidity 47    
Precipitation  
Precipitation 0.00 in 0.03 in - ()
Sea Level Pressure  
Sea Level Pressure 30.24 in    
Wind  
Wind Speed 5 mph ()    
Max Wind Speed 13 mph    
Max Gust Speed -    
Averages and records for this station are not official NWS values.
T = Trace of Precipitation, MM = Missing Value Source: Averaged Metar Reports

Daily Weather History Graph

Daily Weather History Graph

Search for Another Location

Airport or City:

Trip Planner

Search our weather history database for the weather conditions in past years. The results will help you decide how hot, cold, wet, or windy it might be!

Date:

Astronomy

Oct. 26, 2012 Rise Set
Actual Time 7:44 AM PDT 5:46 PM PDT
Civil Twilight 7:10 AM PDT 6:20 PM PDT
Nautical Twilight 6:31 AM PDT 6:58 PM PDT
Astronomical Twilight 5:53 AM PDT 7:36 PM PDT
Moon 4:17 PM PDT 4:30 AM PDT
Length of Visible Light 11h 10m
Length of Day
10h 02m
Waxing Gibbous, 91% of the Moon is Illuminated
Oct 26
Waxing Gibbous
Oct 29
Full
Nov 6
Last Quarter
Nov 13
New
Nov 20
First Quarter

Hourly Weather History & Observations

Time (PDT) Temp. Windchill Dew Point Humidity Pressure Visibility Wind Dir Wind Speed Gust Speed Precip Events Conditions
12:00 AM 35.6 °F - 30.2 °F 81% 30.41 in 40.0 mi Calm Calm - N/A   Overcast
1:00 AM 33.8 °F - 30.2 °F 87% 30.42 in 40.0 mi Calm Calm - N/A   Overcast
2:00 AM 35.6 °F 32.8 °F 30.2 °F 81% 30.40 in 40.0 mi ESE 3.5 mph - N/A   Overcast
3:00 AM 35.6 °F 29.9 °F 32.0 °F 87% 30.39 in 40.0 mi East 6.9 mph - N/A   Overcast
4:00 AM 33.8 °F 28.6 °F 30.2 °F 87% 30.38 in 40.0 mi NE 5.8 mph - N/A   Overcast
5:00 AM 36 °F - 31 °F 76% 30.35 in 37 mi East 6.9 mph - -   Overcast
5:00 AM 35.6 °F 29.9 °F 32.0 °F 87% 30.35 in 40.0 mi East 6.9 mph - N/A   Overcast
6:00 AM 33.8 °F 29.6 °F 30.2 °F 87% 30.35 in 40.0 mi ENE 4.6 mph - N/A   Overcast
7:00 AM 35.6 °F 29.9 °F 32.0 °F 87% 30.32 in 40.0 mi East 6.9 mph - N/A   Overcast
8:00 AM 35.6 °F 30.7 °F 32.0 °F 87% 30.32 in 40.0 mi ESE 5.8 mph - N/A   Overcast
9:00 AM 35.6 °F 29.2 °F 32.0 °F 87% 30.31 in 40.0 mi ESE 8.1 mph - N/A   Overcast
10:00 AM 37.4 °F 32.1 °F 32.0 °F 81% 30.31 in 40.0 mi SE 6.9 mph - N/A   Mostly Cloudy
11:00 AM 40 °F - 32 °F 65% 30.29 in 37 mi ESE 8.1 mph - -   Mostly Cloudy
12:00 PM 41.0 °F 34.3 °F 32.0 °F 70% 30.25 in 30.0 mi ESE 11.5 mph - N/A   Mostly Cloudy
1:00 PM 42.8 °F 38.0 °F 32.0 °F 66% 30.23 in 40.0 mi SE 8.1 mph - N/A   Overcast
2:00 PM 44.6 °F 39.2 °F 32.0 °F 61% 30.19 in 40.0 mi ESE 10.4 mph - N/A   Mostly Cloudy
3:00 PM 46.4 °F 41.9 °F 33.8 °F 62% 30.15 in 40.0 mi East 9.2 mph - N/A   Mostly Cloudy
4:00 PM 46.4 °F 40.7 °F 32.0 °F 57% 30.12 in 40.0 mi East 12.7 mph - N/A   Mostly Cloudy
5:00 PM 46 °F - 32 °F 47% 30.10 in 37 mi ESE 10.4 mph - -   Partly Cloudy
5:00 PM 46.4 °F 41.1 °F 32.0 °F 57% 30.10 in 40.0 mi ESE 11.5 mph - N/A   Mostly Cloudy
6:00 PM 44.6 °F 40.7 °F 32.0 °F 61% 30.09 in 40.0 mi East 6.9 mph - N/A   Overcast
7:00 PM 44.6 °F 39.7 °F 33.8 °F 66% 30.09 in 40.0 mi ESE 9.2 mph - N/A   Overcast
8:00 PM 42.8 °F 37.0 °F 33.8 °F 70% 30.08 in 40.0 mi ESE 10.4 mph - N/A   Overcast
9:00 PM 42.8 °F 38.0 °F 32.0 °F 66% 30.07 in 40.0 mi ESE 8.1 mph - N/A   Overcast
10:00 PM 41.0 °F 36.4 °F 33.8 °F 76% 30.06 in 40.0 mi ESE 6.9 mph - N/A   Overcast
11:00 PM 41 °F - 35 °F 72% 30.05 in 37 mi ESE 6.9 mph - -   Overcast